Location: Rounton
(54.4000°N, 1.3500°W)
Time: 18:07:59
(UTC+00:00)

Tiros 1 despin weight - Pass Details

Date: 04 December 2021
Orbit: 592 x 641 km, 48.2° (Epoch: 21 January)

Event Time Altitude Azimuth Distance (km) Brightness Sun altitude
Rises 17:02:19 0° 267° (W) 2,826 ? -10.6°
Reaches altitude 10° 17:04:47 10° 257° (WSW) 1,923 ? -11.0°
Maximum altitude 17:08:39 30° 195° (SSW) 1,061 ? -11.5°
Drops below altitude 10° 17:12:31 10° 134° (SE) 1,926 ? -12.0°
Enters shadow 17:14:34 - 125° (SE) 2,671 ? -12.3°
